SCP
0 0 0 0 0 0 0 0 0 0 0 0 0 -0 -0 -0 -0 -0 -0 -0 -0 -0 0 0 0 0 0 0 0 0 0 0 0 0 0 0 0 0 0 0 0 0 0
0 0 0 0 0 0 0 0 0 0 0 0 0 0 0 0 0 -0 -0 -0 -0 -0 -0 0 0 0 0 0 0 0 0 0 0 0 0 0 0 0 0 0 0 0 0
0 0 0 0 0 0 0 0 0 0 0 0 0 0 0 0 0 0 -0 -0 -0 -0 -0 -0 0 0 0 0 0 0 0 0 0 0 0 0 0 0 0 0 0 0 0
0 0 0 0 0 0 0 0 0 0 0 0 0 -0 -0 -0 -0 -0 -0 -0 0 0 0 0 0 0 0 0 0 0 0 0 0 0 0 0 0 0 0 0 0 0 0
0 0 0 0 0 0 0 0 0 0 0 0 0 -0 -0 -0 -0 -0 -0 -0 0 0 0 0 0 0 0 0 0 0 0 0 0 0 0 0 0 0 0 0 0 0 0
0 0 0 0 0 0 0 0 0 0 0 0 -0 0 -0 -0 0 0 0 0 0 0 0 0 0 0 0 0 0 0 0 0 0 0 0 0 0 0 0 0 0 0 0
0 0 0 0 0 0 0 0 0 0 0 0 0 0 0 0 -0 0 0 0 0 0 0 0 0 0 0 0 0 0 0 0 0 0 0 0 0 0 0 0 0 0 0
0 0 0 0 0 0 0 0 0 0 0 0 0 0 0 0 -0 -0 0 0 0 0 0 0 0 0 0 0 0 0 0 0 0 0 0 0 0 0 0 0 0 0 0
0 0 0 0 0 0 0 0 0 0 0 0 0 0 0 0 -0 -0 0 0 0 0 0 0 0 0 0 0 0 0 0 0 0 0 0 0 0 0 0 0 0 0 0
0 0 0 0 0 0 0 0 0 0 0 0 0 0 0 0 -0 0 0 0 0 0 0 0 0 0 0 0 0 0 0 0 0 0 0 0 0 0 0 0 0 0 0
0 0 0 0 0 0 0 0 0 0 0 0 0 0 0 0 0 0 0 0 0 0 0 0 0 0 0 0 0 0 0 0 0 0 0 0 0 0 0 0 0 0 0
0 0 0 0 0 0 0 0 0 0 0 0 0 0 0 0 0 0 0 0 0 0 0 0 0 0 0 0 0 0 0 0 0 0 0 0 0 0 0 0 0 0 0
0 0 0 0 0 0 0 0 0 0 0 0 0 0 0 0 0 0 0 0 0 0 0 0 0 0 0 0 0 0 0 0 0 0 0 0 0 0 0 0 0 0 0
0 0 0 0 0 0 0 0 0 0 0 0 0 0 0 0 0 0 0 0 0 0 0 0 0 0 0 0 0 0 0 0 0 0 0 0 0 0 0 0 0 0 0
0 0 0 0 0 0 0 0 0 0 0 0 0 0 -0 -0 -0 -0 -0 0 0 0 0 0 0 0 0 0 0 0 0 0 0 0 0 0 0 0 0 0 0 0 0
0 0 0 0 0 0 0 0 0 0 0 0 -0 -0 0 -0 -0 -0 -0 -0 -0 0 0 0 0 0 0 0 0 0 0 0 0 0 0 0 0 0 0 -0 0 0 0
0 0 0 0 0 0 0 0 0 0 0 0 0 0 0 -0 -0 -0 0 0 0 0 0 0 0 0 0 0 0 0 0 0 0 0 0 0 0 0 0 0 0 0 0
0 0 0 0 0 0 0 0 0 0 -0 0 0 0 0 0 0 0 0 0 0 0 0 0 0 0 0 0 0 0 0 0 0 0 0 0 0 0 0 0 0 0 0
0 0 0 0 0 0 0 0 0 0 -0 -0 0 0 0 0 0 0 0 0 0 0 0 0 0 0 0 0 0 0 0 0 0 0 0 0 0 0 0 0 0 0 0
0 0 0 0 0 0 0 0 0 0 0 0 0 0 0 0 0 0 0 0 0 0 0 0 0 0 0 0 0 0 0 0 0 0 0 0 0 0 0 0 0 0 0
0 0 0 0 0 0 0 0 0 0 0 0 0 0 -0 0 0 0 0 0 0 0 0 0 0 0 0 0 0 0 0 0 0 0 0 0 0 0 0 0 0 0 0
0 0 0 0 0 0 0 0 0 0 0 0 0 0 0 0 0 0 0 0 0 0 0 0 0 0 0 0 0 0 0 0 0 0 0 0 0 0 0 0 0 0 0
0 0 0 0 0 0 0 0 0 0 0 0 0 0 0 0 0 0 0 0 0 0 0 0 0 0 0 0 0 0 0 0 0 0 0 0 0 0 0 0 0 0 0
0 0 0 0 0 0 0 0 0 0 0 0 0 0 0 0 0 0 0 0 0 0 0 0 0 -0 0 0 0 0 0 0 0 0 0 0 0 0 0 0 0 0 0
0 0 0 0 0 0 0 0 0 0 0 0 0 0 0 0 0 0 0 0 0 0 0 0 0 -0 -0 0 0 0 0 0 0 0 0 0 0 0 0 0 0 0 0
0 0 0 0 0 0 0 -0 -0 -0 0 0 0 0 0 0 0 0 0 0 0 0 0 0 0 0 0 0 0 -0 -0 0 0 0 0 0 0 0 0 0 0 0 0
Wind_Speed_500mb
8 12 15 19 23 27 31 35 39 42 46 49 53 56 57 61 64 67 67 68 69 72 70 70 71 66 65 61 59 59 61 62 78 84 84 88 92 91 86 84 88 90 87
9 13 19 23 28 32 35 37 40 42 43 47 51 56 61 69 76 84 87 87 88 89 88 84 84 80 79 78 75 73 72 70 75 85 79 79 86 83 86 87 84 87 96
17 22 27 34 38 42 44 47 50 52 54 59 66 73 78 82 85 87 91 95 97 97 98 98 99 93 91 86 84 86 86 84 84 88 93 84 84 82 83 84 86 84 87
23 27 32 39 44 48 51 54 54 57 65 72 80 87 91 95 97 97 94 93 96 98 100 102 103 104 103 100 94 91 90 93 94 98 103 98 92 89 85 86 90 85 88
32 33 36 43 48 54 59 60 62 69 78 85 89 91 94 94 94 93 89 91 95 100 104 106 107 107 105 103 84 91 89 93 96 99 109 101 96 94 94 84 90 88 90
40 42 44 52 58 62 64 63 70 78 82 86 89 90 92 94 95 95 92 94 98 101 106 109 107 106 107 95 86 77 76 80 86 80 88 89 98 83 88 90 88 88 95
50 52 53 56 62 64 63 69 77 81 86 87 88 90 94 98 97 94 86 86 94 97 97 98 99 99 90 83 81 79 83 87 87 90 94 95 91 87 75 78 88 87 98
52 55 57 63 63 62 66 74 78 82 86 89 90 94 99 100 94 89 80 77 85 87 86 84 82 85 83 75 78 84 89 93 94 94 99 115 109 103 85 84 85 95 100
54 58 61 61 59 63 71 75 78 83 86 89 91 94 96 96 86 80 75 75 77 78 75 72 66 69 65 61 66 76 84 93 91 89 95 98 101 101 91 89 85 84 93
56 59 58 56 59 66 70 76 79 82 88 88 90 87 87 87 80 74 66 62 71 74 73 73 71 66 62 59 65 74 86 88 81 83 84 88 91 102 107 105 104 101 90
56 54 54 54 60 66 70 74 79 83 86 87 87 86 82 75 75 69 57 59 68 76 80 78 78 68 65 65 66 75 85 83 84 84 93 103 98 94 96 92 108 107 101
52 52 53 54 57 61 67 71 74 78 81 82 83 84 78 73 68 69 59 59 63 72 80 83 87 77 69 70 74 80 81 84 89 80 77 79 90 92 102 100 94 97 105
54 52 52 53 54 58 64 67 71 71 74 79 79 80 81 78 76 79 72 62 64 73 83 84 83 84 82 81 82 83 79 85 91 94 101 101 100 109 93 84 96 96 98
55 55 53 53 54 57 61 61 65 66 70 75 77 82 82 81 78 79 76 86 84 82 84 87 91 89 81 83 91 89 91 94 94 94 94 95 90 87 90 96 93 100 91
56 54 51 53 55 58 59 58 59 59 61 64 66 67 70 73 75 68 70 73 74 76 77 81 82 78 78 74 78 85 92 96 97 97 91 85 87 88 86 97 87 73 80
52 50 52 54 56 57 60 63 48 49 53 53 44 44 52 56 60 63 63 65 63 60 59 60 61 61 62 63 65 71 74 81 87 81 78 77 80 80 84 86 93 71 82
51 49 51 52 55 56 57 60 65 46 40 48 43 49 45 49 55 59 56 54 58 49 48 51 56 58 61 65 67 75 80 69 71 72 70 69 72 79 77 56 79 56 72
49 48 51 51 53 54 54 52 50 51 50 41 40 49 47 48 51 50 48 50 47 46 49 53 55 57 60 62 64 66 63 57 55 51 53 58 65 64 56 59 55 63 63
48 47 48 49 50 50 50 47 44 42 42 42 41 41 46 48 51 48 49 52 55 56 55 55 54 55 56 58 59 56 53 50 45 46 47 55 62 59 55 57 56 66 63
48 47 47 46 46 47 44 42 40 38 38 37 40 44 48 53 53 55 52 53 55 57 58 57 56 54 53 53 54 53 51 46 46 45 48 53 58 62 56 49 45 53 61
49 47 44 43 43 43 40 38 36 35 37 35 35 37 35 39 44 47 49 50 51 53 56 58 58 56 54 52 52 50 46 44 38 35 34 34 35 36 35 39 43 46 50
51 45 41 41 40 36 35 35 33 32 32 33 31 29 31 33 37 40 43 45 46 47 49 52 53 55 55 54 53 50 46 42 40 37 36 34 30 25 21 20 23 31 38
45 41 38 37 36 33 31 31 30 29 29 28 31 32 31 33 37 39 41 42 43 44 45 47 49 52 53 54 56 52 46 43 40 36 33 30 25 20 15 8 6 15 22
41 38 36 35 33 30 29 27 28 29 29 28 29 30 33 35 37 39 40 40 40 40 41 43 44 47 49 50 53 56 50 41 34 31 28 24 20 16 11 6 5 9 15
37 36 36 34 31 30 30 29 29 29 29 31 32 34 36 37 38 39 39 39 39 39 39 39 41 42 44 44 46 49 51 47 40 34 29 25 20 18 15 14 14 16 18
34 35 35 35 33 32 32 31 32 34 34 36 36 37 39 39 39 39 40 40 39 37 36 36 36 36 36 38 41 43 44 45 43 40 35 30 28 27 24 24 23 23 22
Wind_Direction_500mb
359 351 346 342 340 338 334 330 328 329 330 330 329 328 327 325 322 318 315 311 307 305 303 302 299 299 297 296 295 292 292 289 283 286 287 289 287 285 281 274 268 262 258
316 320 319 321 323 322 321 322 322 322 321 321 319 318 318 316 315 314 311 309 307 304 301 297 294 293 291 291 290 289 287 287 288 290 289 288 290 289 286 280 273 266 260
318 323 323 323 322 321 320 320 321 321 322 320 318 316 314 311 308 305 304 302 300 299 298 296 294 292 288 285 284 284 284 286 285 286 288 286 285 288 289 285 280 273 266
300 307 311 315 316 317 316 317 317 318 317 316 315 314 313 312 311 309 306 301 299 296 294 292 291 290 291 291 288 284 281 280 280 282 283 284 283 284 284 286 286 279 273
282 289 297 304 308 311 312 313 314 315 315 314 313 312 312 311 310 309 306 302 298 296 293 291 290 289 288 288 286 286 285 284 283 280 278 280 279 278 277 283 284 287 284
272 281 290 297 300 304 305 306 309 311 311 311 311 312 311 310 309 306 304 299 296 292 291 290 288 287 286 286 283 279 275 275 275 274 275 275 275 271 274 277 277 279 280
268 275 281 288 292 296 298 303 307 309 311 312 312 311 312 311 310 310 305 298 294 290 287 284 282 281 280 279 279 278 273 267 263 267 269 268 271 270 271 269 269 269 272
266 268 275 286 290 292 298 304 307 310 312 313 313 314 313 313 315 314 309 301 296 294 292 292 291 291 288 286 283 281 277 275 272 269 267 268 266 266 263 265 265 268 271
265 266 277 285 288 294 302 306 310 312 313 313 314 316 316 316 320 317 311 304 299 298 298 298 298 297 296 292 288 286 285 282 280 273 269 268 268 265 264 264 258 254 256
262 274 281 285 291 301 306 310 313 313 312 314 316 318 317 321 320 315 310 304 302 303 303 303 305 296 295 292 287 285 284 284 286 285 286 283 278 268 258 251 255 250 249
269 276 281 284 296 304 308 311 314 314 315 316 317 319 322 323 319 316 311 304 301 303 304 301 298 297 293 290 285 282 281 289 289 284 282 276 274 275 271 260 250 245 245
273 279 278 287 298 305 310 313 312 313 316 318 319 321 323 322 319 326 313 304 302 297 296 298 303 300 294 290 286 283 283 283 284 281 282 276 276 276 267 263 256 250 243
279 278 280 291 301 308 312 314 313 317 319 319 321 322 324 324 326 330 322 311 308 303 301 301 300 296 294 290 286 285 283 281 280 279 274 273 273 270 270 271 258 252 252
278 279 285 294 304 310 313 315 316 320 320 320 325 327 324 323 317 319 324 322 317 312 309 306 306 305 296 289 291 290 287 285 279 274 273 272 272 271 266 260 265 246 241
277 279 287 297 306 311 313 316 319 321 322 321 315 314 315 314 316 317 314 312 312 311 308 299 298 297 295 295 296 296 293 292 287 286 277 270 273 274 268 251 262 240 230
273 281 289 300 307 310 313 313 315 317 321 321 318 313 313 311 316 316 317 315 314 312 308 312 318 321 319 316 312 313 301 286 283 276 268 275 276 273 277 262 259 238 225
277 283 292 301 306 310 311 311 313 314 322 328 340 336 331 324 326 326 322 322 316 324 322 327 331 332 329 331 331 327 319 309 286 277 275 279 281 278 288 269 253 246 241
277 286 294 300 302 306 306 307 312 319 327 331 335 341 344 341 339 339 339 337 334 341 345 343 341 340 340 337 336 333 332 321 308 296 284 281 285 292 295 280 276 250 240
280 284 289 294 298 300 301 304 308 312 319 327 334 332 339 351 351 348 356 359 357 354 351 349 348 346 346 345 344 339 342 336 323 309 298 291 292 295 290 287 286 246 232
279 283 287 292 294 294 298 300 302 307 314 323 333 334 338 349 347 353 1 2 3 1 359 356 353 351 351 350 349 348 349 347 344 334 323 311 305 301 296 290 277 240 232
277 280 284 286 286 288 294 296 299 305 311 320 329 333 343 338 346 353 356 1 2 4 5 6 3 360 356 354 352 351 351 350 347 345 341 335 325 314 300 282 269 254 240
274 277 277 279 279 284 290 294 297 303 308 315 324 331 337 342 348 352 355 358 1 3 4 5 8 8 8 5 359 352 351 354 353 353 352 351 347 341 330 301 259 237 229
271 270 269 271 275 279 285 290 295 300 304 310 317 324 334 340 344 348 351 353 357 358 1 3 5 8 9 12 15 3 356 357 356 355 356 356 357 357 351 330 255 215 205
265 262 262 265 269 274 280 283 289 293 298 305 310 318 325 330 334 338 341 345 347 353 356 359 3 6 6 9 15 16 9 6 5 9 9 9 12 16 23 50 117 159 168
258 258 262 262 265 269 275 280 286 289 295 300 305 310 315 319 324 327 331 335 339 344 350 353 357 2 6 7 15 17 17 18 21 25 28 31 40 52 64 86 106 125 140
260 260 263 263 264 268 274 278 283 286 291 295 301 306 310 314 319 322 326 329 332 338 344 349 354 357 1 6 15 17 21 22 28 33 39 48 58 69 77 86 96 104 114
Wind_Speed_850mb
8 12 15 19 23 27 31 35 39 42 46 49 53 56 57 61 64 67 67 68 69 72 70 70 71 66 65 61 59 59 61 62 78 84 84 88 92 91 86 84 88 90 87
9 13 19 23 28 32 35 37 40 42 43 47 51 56 61 69 76 84 87 87 88 89 88 84 84 80 79 78 75 73 72 70 75 85 79 79 86 83 86 87 84 87 96
17 22 27 34 38 42 44 47 50 52 54 59 66 73 78 82 85 87 91 95 97 97 98 98 99 93 91 86 84 86 86 84 84 88 93 84 84 82 83 84 86 84 87
23 27 32 39 44 48 51 54 54 57 65 72 80 87 91 95 97 97 94 93 96 98 100 102 103 104 103 100 94 91 90 93 94 98 103 98 92 89 85 86 90 85 88
32 33 36 43 48 54 59 60 62 69 78 85 89 91 94 94 94 93 89 91 95 100 104 106 107 107 105 103 84 91 89 93 96 99 109 101 96 94 94 84 90 88 90
40 42 44 52 58 62 64 63 70 78 82 86 89 90 92 94 95 95 92 94 98 101 106 109 107 106 107 95 86 77 76 80 86 80 88 89 98 83 88 90 88 88 95
50 52 53 56 62 64 63 69 77 81 86 87 88 90 94 98 97 94 86 86 94 97 97 98 99 99 90 83 81 79 83 87 87 90 94 95 91 87 75 78 88 87 98
52 55 57 63 63 62 66 74 78 82 86 89 90 94 99 100 94 89 80 77 85 87 86 84 82 85 83 75 78 84 89 93 94 94 99 115 109 103 85 84 85 95 100
54 58 61 61 59 63 71 75 78 83 86 89 91 94 96 96 86 80 75 75 77 78 75 72 66 69 65 61 66 76 84 93 91 89 95 98 101 101 91 89 85 84 93
56 59 58 56 59 66 70 76 79 82 88 88 90 87 87 87 80 74 66 62 71 74 73 73 71 66 62 59 65 74 86 88 81 83 84 88 91 102 107 105 104 101 90
56 54 54 54 60 66 70 74 79 83 86 87 87 86 82 75 75 69 57 59 68 76 80 78 78 68 65 65 66 75 85 83 84 84 93 103 98 94 96 92 108 107 101
52 52 53 54 57 61 67 71 74 78 81 82 83 84 78 73 68 69 59 59 63 72 80 83 87 77 69 70 74 80 81 84 89 80 77 79 90 92 102 100 94 97 105
54 52 52 53 54 58 64 67 71 71 74 79 79 80 81 78 76 79 72 62 64 73 83 84 83 84 82 81 82 83 79 85 91 94 101 101 100 109 93 84 96 96 98
55 55 53 53 54 57 61 61 65 66 70 75 77 82 82 81 78 79 76 86 84 82 84 87 91 89 81 83 91 89 91 94 94 94 94 95 90 87 90 96 93 100 91
56 54 51 53 55 58 59 58 59 59 61 64 66 67 70 73 75 68 70 73 74 76 77 81 82 78 78 74 78 85 92 96 97 97 91 85 87 88 86 97 87 73 80
52 50 52 54 56 57 60 63 48 49 53 53 44 44 52 56 60 63 63 65 63 60 59 60 61 61 62 63 65 71 74 81 87 81 78 77 80 80 84 86 93 71 82
51 49 51 52 55 56 57 60 65 46 40 48 43 49 45 49 55 59 56 54 58 49 48 51 56 58 61 65 67 75 80 69 71 72 70 69 72 79 77 56 79 56 72
49 48 51 51 53 54 54 52 50 51 50 41 40 49 47 48 51 50 48 50 47 46 49 53 55 57 60 62 64 66 63 57 55 51 53 58 65 64 56 59 55 63 63
48 47 48 49 50 50 50 47 44 42 42 42 41 41 46 48 51 48 49 52 55 56 55 55 54 55 56 58 59 56 53 50 45 46 47 55 62 59 55 57 56 66 63
48 47 47 46 46 47 44 42 40 38 38 37 40 44 48 53 53 55 52 53 55 57 58 57 56 54 53 53 54 53 51 46 46 45 48 53 58 62 56 49 45 53 61
49 47 44 43 43 43 40 38 36 35 37 35 35 37 35 39 44 47 49 50 51 53 56 58 58 56 54 52 52 50 46 44 38 35 34 34 35 36 35 39 43 46 50
51 45 41 41 40 36 35 35 33 32 32 33 31 29 31 33 37 40 43 45 46 47 49 52 53 55 55 54 53 50 46 42 40 37 36 34 30 25 21 20 23 31 38
45 41 38 37 36 33 31 31 30 29 29 28 31 32 31 33 37 39 41 42 43 44 45 47 49 52 53 54 56 52 46 43 40 36 33 30 25 20 15 8 6 15 22
41 38 36 35 33 30 29 27 28 29 29 28 29 30 33 35 37 39 40 40 40 40 41 43 44 47 49 50 53 56 50 41 34 31 28 24 20 16 11 6 5 9 15
37 36 36 34 31 30 30 29 29 29 29 31 32 34 36 37 38 39 39 39 39 39 39 39 41 42 44 44 46 49 51 47 40 34 29 25 20 18 15 14 14 16 18
34 35 35 35 33 32 32 31 32 34 34 36 36 37 39 39 39 39 40 40 39 37 36 36 36 36 36 38 41 43 44 45 43 40 35 30 28 27 24 24 23 23 22
Wind_Direction_850mb
359 351 346 342 340 338 334 330 328 329 330 330 329 328 327 325 322 318 315 311 307 305 303 302 299 299 297 296 295 292 292 289 283 286 287 289 287 285 281 274 268 262 258
316 320 319 321 323 322 321 322 322 322 321 321 319 318 318 316 315 314 311 309 307 304 301 297 294 293 291 291 290 289 287 287 288 290 289 288 290 289 286 280 273 266 260
318 323 323 323 322 321 320 320 321 321 322 320 318 316 314 311 308 305 304 302 300 299 298 296 294 292 288 285 284 284 284 286 285 286 288 286 285 288 289 285 280 273 266
300 307 311 315 316 317 316 317 317 318 317 316 315 314 313 312 311 309 306 301 299 296 294 292 291 290 291 291 288 284 281 280 280 282 283 284 283 284 284 286 286 279 273
282 289 297 304 308 311 312 313 314 315 315 314 313 312 312 311 310 309 306 302 298 296 293 291 290 289 288 288 286 286 285 284 283 280 278 280 279 278 277 283 284 287 284
272 281 290 297 300 304 305 306 309 311 311 311 311 312 311 310 309 306 304 299 296 292 291 290 288 287 286 286 283 279 275 275 275 274 275 275 275 271 274 277 277 279 280
268 275 281 288 292 296 298 303 307 309 311 312 312 311 312 311 310 310 305 298 294 290 287 284 282 281 280 279 279 278 273 267 263 267 269 268 271 270 271 269 269 269 272
266 268 275 286 290 292 298 304 307 310 312 313 313 314 313 313 315 314 309 301 296 294 292 292 291 291 288 286 283 281 277 275 272 269 267 268 266 266 263 265 265 268 271
265 266 277 285 288 294 302 306 310 312 313 313 314 316 316 316 320 317 311 304 299 298 298 298 298 297 296 292 288 286 285 282 280 273 269 268 268 265 264 264 258 254 256
262 274 281 285 291 301 306 310 313 313 312 314 316 318 317 321 320 315 310 304 302 303 303 303 305 296 295 292 287 285 284 284 286 285 286 283 278 268 258 251 255 250 249
269 276 281 284 296 304 308 311 314 314 315 316 317 319 322 323 319 316 311 304 301 303 304 301 298 297 293 290 285 282 281 289 289 284 282 276 274 275 271 260 250 245 245
273 279 278 287 298 305 310 313 312 313 316 318 319 321 323 322 319 326 313 304 302 297 296 298 303 300 294 290 286 283 283 283 284 281 282 276 276 276 267 263 256 250 243
279 278 280 291 301 308 312 314 313 317 319 319 321 322 324 324 326 330 322 311 308 303 301 301 300 296 294 290 286 285 283 281 280 279 274 273 273 270 270 271 258 252 252
278 279 285 294 304 310 313 315 316 320 320 320 325 327 324 323 317 319 324 322 317 312 309 306 306 305 296 289 291 290 287 285 279 274 273 272 272 271 266 260 265 246 241
277 279 287 297 306 311 313 316 319 321 322 321 315 314 315 314 316 317 314 312 312 311 308 299 298 297 295 295 296 296 293 292 287 286 277 270 273 274 268 251 262 240 230
273 281 289 300 307 310 313 313 315 317 321 321 318 313 313 311 316 316 317 315 314 312 308 312 318 321 319 316 312 313 301 286 283 276 268 275 276 273 277 262 259 238 225
277 283 292 301 306 310 311 311 313 314 322 328 340 336 331 324 326 326 322 322 316 324 322 327 331 332 329 331 331 327 319 309 286 277 275 279 281 278 288 269 253 246 241
277 286 294 300 302 306 306 307 312 319 327 331 335 341 344 341 339 339 339 337 334 341 345 343 341 340 340 337 336 333 332 321 308 296 284 281 285 292 295 280 276 250 240
280 284 289 294 298 300 301 304 308 312 319 327 334 332 339 351 351 348 356 359 357 354 351 349 348 346 346 345 344 339 342 336 323 309 298 291 292 295 290 287 286 246 232
279 283 287 292 294 294 298 300 302 307 314 323 333 334 338 349 347 353 1 2 3 1 359 356 353 351 351 350 349 348 349 347 344 334 323 311 305 301 296 290 277 240 232
277 280 284 286 286 288 294 296 299 305 311 320 329 333 343 338 346 353 356 1 2 4 5 6 3 360 356 354 352 351 351 350 347 345 341 335 325 314 300 282 269 254 240
274 277 277 279 279 284 290 294 297 303 308 315 324 331 337 342 348 352 355 358 1 3 4 5 8 8 8 5 359 352 351 354 353 353 352 351 347 341 330 301 259 237 229
271 270 269 271 275 279 285 290 295 300 304 310 317 324 334 340 344 348 351 353 357 358 1 3 5 8 9 12 15 3 356 357 356 355 356 356 357 357 351 330 255 215 205
265 262 262 265 269 274 280 283 289 293 298 305 310 318 325 330 334 338 341 345 347 353 356 359 3 6 6 9 15 16 9 6 5 9 9 9 12 16 23 50 117 159 168
258 258 262 262 265 269 275 280 286 289 295 300 305 310 315 319 324 327 331 335 339 344 350 353 357 2 6 7 15 17 17 18 21 25 28 31 40 52 64 86 106 125 140
260 260 263 263 264 268 274 278 283 286 291 295 301 306 310 314 319 322 326 329 332 338 344 349 354 357 1 6 15 17 21 22 28 33 39 48 58 69 77 86 96 104 114